Temperature
6 6 6 6 6 6 6 6 6 6 6 6 6 6 6 6 7 7 7 7 7 7 7 7 7 7 8 7 8 8 8 8 8 8 8 8 8 8 8 8 8 8 8
6 6 6 6 5 5 5 6 6 6 6 6 6 6 6 6 6 6 7 7 7 7 7 7 7 7 7 7 7 8 8 8 8 8 8 8 8 8 8 8 8 8 8
5 5 5 5 5 5 5 5 5 5 5 6 5 6 6 6 6 6 6 6 7 7 7 7 7 7 7 7 7 7 7 8 8 8 7 7 7 7 7 7 7 7 7
5 5 5 4 4 4 5 5 5 5 5 5 5 5 5 6 6 6 6 6 6 6 7 7 7 7 7 7 7 7 7 7 7 7 7 7 7 7 7 7 7 7 7
4 4 4 4 4 4 4 4 4 4 4 4 5 5 5 5 5 6 6 6 6 6 6 6 6 7 7 7 7 7 7 7 7 7 6 6 6 6 6 6 6 6 6
4 3 3 3 3 4 4 4 4 4 4 4 4 4 4 5 5 5 5 6 6 6 6 6 6 6 6 7 7 7 6 6 6 6 6 6 6 6 6 5 6 5 5
3 3 3 3 3 3 3 3 3 3 3 3 4 4 4 4 5 5 5 5 5 5 6 6 6 6 6 6 6 6 6 6 6 6 6 6 6 6 6 5 5 5 5
3 2 2 2 2 2 2 3 3 3 3 3 3 3 4 4 4 4 5 5 5 5 5 5 5 5 6 6 6 6 6 6 6 6 6 6 6 6 5 5 5 5 5
2 2 2 2 2 2 2 2 2 3 3 3 3 3 4 4 4 4 5 5 5 5 5 5 5 5 5 5 5 5 5 5 5 5 5 5 5 5 5 5 4 4 4
2 2 1 1 1 1 1 2 2 2 2 3 3 3 3 3 4 4 4 4 4 4 4 4 5 5 5 5 5 5 5 5 5 5 5 5 5 4 4 4 4 4 4
1 1 1 1 1 1 1 1 1 1 2 2 2 3 3 3 3 4 4 4 4 4 4 4 4 4 4 5 5 5 5 4 4 4 4 4 4 4 4 4 4 4 4
1 1 1 1 1 1 1 1 1 1 1 2 2 2 2 2 3 3 3 3 3 3 3 4 4 4 4 4 4 4 4 4 4 4 3 3 3 3 3 3 3 3 3
1 1 1 1 1 1 1 1 1 1 1 1 1 2 2 2 2 3 3 3 3 3 3 3 3 4 4 4 4 4 3 3 3 3 3 3 3 3 3 3 3 3 3
0 0 0 0 0 1 1 1 1 1 1 1 1 1 1 2 2 2 3 3 3 3 3 3 3 3 3 3 3 3 3 3 3 3 3 2 2 2 2 2 2 2 2
-0 -0 -0 -0 0 0 0 0 0 0 1 1 1 1 1 1 1 2 2 2 2 2 2 2 2 3 3 3 3 2 2 2 2 2 2 2 2 2 2 2 2 1 1
-0 -0 -0 -0 -0 -0 -0 0 0 0 1 1 1 1 1 1 1 2 2 2 2 2 2 2 2 2 2 2 2 2 2 2 2 2 2 2 1 1 1 1 1 1 1
-1 -1 -1 -0 -0 -0 -0 -1 -0 0 1 1 1 1 1 1 1 2 2 2 1 2 1 1 1 1 1 1 1 1 1 1 1 1 1 1 1 1 1 0 0 -0 -0
-1 -1 -1 -1 -1 -1 -1 -1 -1 -1 -0 0 0 0 1 1 1 1 1 1 1 1 1 1 1 1 1 1 1 1 1 1 1 1 1 1 1 0 0 -0 -0 -0 -1
-1 -1 -1 -1 -1 -1 -1 -1 -1 -1 -1 -1 -1 -0 0 0 1 1 1 1 1 1 1 1 1 1 1 1 1 1 0 0 0 0 0 0 0 -0 -0 -0 -1 -1 -1
-2 -2 -2 -2 -1 -1 -1 -1 -1 -1 -2 -2 -1 -1 -1 0 0 1 1 1 1 1 1 1 0 0 0 0 0 0 0 0 0 0 -0 -0 -0 -1 -1 -1 -1 -1 -2
-2 -2 -2 -2 -2 -2 -2 -2 -2 -2 -2 -2 -2 -1 -1 -0 -0 0 0 0 0 0 0 0 0 0 0 0 0 -0 -0 -0 -0 -1 -1 -1 -1 -1 -1 -1 -2 -2 -2
-3 -3 -3 -3 -3 -3 -3 -2 -2 -2 -2 -2 -2 -2 -1 -1 -1 -0 -0 -0 -0 -0 -0 -0 -0 -0 -0 -0 -0 -0 -0 -0 -1 -1 -1 -1 -1 -1 -1 -2 -2 -2 -3
-4 -3 -3 -3 -3 -3 -3 -3 -3 -3 -3 -3 -2 -2 -1 -1 -1 -1 -1 -0 -0 -0 -0 -0 -0 -1 -0 -0 -0 -0 -0 -0 -1 -1 -1 -1 -2 -2 -2 -2 -2 -3 -3
-4 -4 -4 -4 -4 -4 -4 -4 -3 -3 -3 -3 -3 -2 -2 -2 -1 -1 -1 -1 -1 -1 -1 -1 -1 -1 -1 -1 -1 -1 -1 -1 -1 -1 -1 -2 -2 -2 -2 -3 -3 -3 -3
-4 -4 -4 -4 -4 -4 -4 -4 -4 -4 -4 -4 -3 -3 -2 -2 -2 -2 -2 -1 -1 -1 -1 -1 -1 -1 -1 -1 -1 -1 -1 -1 -2 -2 -2 -2 -2 -3 -3 -3 -3 -3 -3
-5 -5 -5 -5 -5 -5 -5 -4 -4 -4 -4 -4 -4 -3 -3 -2 -2 -2 -2 -2 -2 -2 -1 -1 -1 -1 -1 -1 -1 -1 -2 -2 -2 -2 -2 -3 -3 -3 -3 -3 -3 -4 -4
Wind_Speed
5 5 5 5 6 6 5 6 6 6 6 7 8 8 9 10 10 9 9 10 11 10 10 10 11 9 7 7 6 6 6 5 7 5 3 3 4 5 4 4 6 6 7
4 4 4 4 4 4 4 5 5 5 6 6 7 7 8 9 9 9 10 10 10 11 10 10 10 9 9 8 7 7 6 6 6 6 4 4 4 5 4 4 3 3 4
3 3 4 4 4 4 4 4 4 4 5 6 6 7 8 8 9 9 9 9 9 9 9 10 10 10 10 8 8 7 6 6 5 5 4 3 2 2 2 2 2 1 2
3 3 4 4 4 5 4 4 4 4 5 5 6 6 7 8 8 8 8 8 8 7 8 8 9 10 10 9 8 8 7 6 5 5 4 3 2 2 3 3 1 1 1
3 3 4 4 4 4 3 3 4 4 5 5 5 5 5 5 6 6 6 7 6 6 6 7 8 9 10 9 8 7 8 6 5 5 5 4 3 4 4 3 2 1 0
4 4 4 4 4 4 4 4 5 4 5 5 5 5 5 5 6 7 6 5 6 6 6 5 6 7 8 10 10 10 10 9 7 6 5 6 5 4 3 3 3 2 2
4 4 4 4 5 5 5 5 5 5 5 5 5 5 5 6 7 7 7 6 5 5 5 4 4 5 7 6 7 8 8 10 10 8 7 7 6 6 5 4 4 3 3
5 5 5 5 6 6 5 6 6 5 5 5 5 5 5 5 6 6 7 5 4 4 4 5 4 5 6 6 5 5 4 5 6 6 6 6 5 6 6 5 4 2 1
5 5 5 6 6 6 6 6 6 5 4 4 4 4 4 4 4 4 3 3 2 3 3 4 3 4 6 6 6 5 4 3 3 4 4 5 6 6 5 5 4 3 1
5 5 5 5 5 6 5 5 5 4 4 3 3 2 2 1 2 2 1 2 2 2 2 3 5 4 6 7 6 6 5 4 4 3 3 3 3 4 4 4 5 4 1
5 4 5 5 5 5 5 4 3 3 3 2 2 1 1 1 0 0 1 1 2 1 2 2 2 3 4 6 6 5 6 5 5 4 3 3 3 3 3 2 2 3 2
4 4 4 5 5 5 4 3 2 2 2 2 2 2 1 1 1 1 1 0 1 1 2 2 2 3 3 5 5 6 8 6 4 4 3 3 3 2 3 3 3 4 3
4 5 5 4 4 4 2 2 1 1 1 1 1 1 1 1 1 1 1 1 1 0 1 1 2 3 3 4 6 8 7 5 5 4 3 2 2 3 3 3 5 6 7
5 5 4 4 4 3 1 0 0 0 0 1 1 1 1 1 0 1 1 1 1 1 1 2 2 3 3 5 6 5 4 4 4 4 3 3 3 3 3 3 4 4 5
4 4 4 3 2 2 1 1 0 0 1 1 0 0 0 1 1 1 1 1 1 1 1 2 2 3 3 3 4 4 4 4 4 4 4 3 3 4 3 2 3 3 3
3 3 3 2 2 1 1 2 3 2 3 2 1 2 2 2 2 1 1 1 3 3 3 2 2 2 2 3 4 4 3 4 4 4 3 3 3 4 4 3 3 4 4
3 3 3 2 2 1 0 1 2 4 4 3 3 3 3 2 1 2 3 4 4 4 3 3 2 2 2 3 3 4 3 3 3 3 3 3 3 4 4 4 4 4 4
3 3 3 2 2 1 0 0 0 1 2 3 3 3 4 2 2 4 5 5 4 3 3 3 3 3 3 3 3 3 3 3 3 3 3 3 4 4 4 4 4 4 4
3 2 2 2 1 1 1 1 1 1 1 2 3 3 4 3 4 4 4 4 4 3 2 3 3 3 3 3 3 3 3 3 3 3 3 3 4 4 4 4 4 6 5
2 4 3 2 2 1 1 1 1 1 1 1 2 2 2 3 3 3 3 3 3 3 2 3 3 3 3 3 3 3 3 3 3 3 3 3 4 4 5 5 4 4 4
2 2 3 2 1 1 1 1 1 1 1 1 2 2 2 1 1 2 2 3 3 2 2 2 3 2 3 3 4 4 4 3 3 3 3 4 4 5 5 5 5 4 5
2 1 1 1 1 1 1 1 1 1 1 1 2 2 3 2 1 2 2 2 2 2 2 3 2 2 2 3 4 4 4 4 3 4 4 4 4 5 5 5 5 4 5
2 2 2 2 2 1 1 1 1 1 1 1 2 2 2 1 1 2 2 2 2 2 2 3 3 2 3 3 3 3 4 3 4 4 5 5 4 4 5 5 5 5 5
2 2 2 2 2 1 1 1 1 1 1 2 2 2 1 1 1 2 2 2 2 2 3 3 3 4 4 4 4 3 3 4 5 5 6 6 5 5 5 5 5 5 5
2 2 2 2 1 1 1 1 1 1 2 2 2 1 2 1 2 2 2 2 2 3 3 3 3 4 5 5 4 5 6 7 7 6 6 6 6 5 5 5 5 5 5
2 2 1 1 1 1 1 1 1 1 1 2 1 1 1 1 2 2 2 2 2 2 3 3 4 5 5 5 6 8 9 9 9 8 7 6 6 5 6 5 6 5 6
Wind_Direction
282 273 265 264 259 253 250 251 246 239 233 235 235 234 238 234 229 226 228 223 223 226 225 224 225 221 218 220 219 220 221 216 237 242 223 215 208 208 204 211 218 217 224
292 292 276 268 269 266 265 263 257 255 242 240 239 238 240 239 231 226 229 230 225 226 225 221 224 222 218 217 216 220 222 218 220 229 231 216 215 202 189 194 211 219 222
311 307 298 284 277 270 271 278 272 269 263 253 249 244 241 241 236 231 229 230 229 228 225 222 221 219 222 220 216 217 219 219 210 210 221 215 210 177 173 191 174 190 214
313 303 303 296 285 276 276 279 277 279 276 266 261 253 247 241 240 237 232 230 231 229 227 226 222 220 221 217 217 215 209 205 204 204 206 199 195 181 167 188 204 199 199
321 315 310 306 308 304 290 280 285 280 283 278 266 262 259 248 243 236 227 229 225 225 226 227 225 222 218 214 212 206 198 198 199 199 200 194 196 185 196 190 197 165 300
319 312 311 312 312 308 302 288 289 287 287 285 271 258 257 257 258 250 238 230 224 220 224 230 224 220 214 211 209 201 194 193 195 197 204 200 208 201 192 186 172 167 228
316 312 315 317 310 306 307 300 285 280 282 280 278 266 254 250 259 259 245 237 222 217 221 223 226 220 200 197 198 197 199 195 197 197 197 204 201 192 184 190 194 199 217
313 311 315 317 311 310 307 301 292 282 281 275 271 266 254 245 253 255 244 229 219 215 216 212 218 213 197 186 184 187 192 191 195 196 195 198 195 186 185 189 183 152 84
311 314 317 313 308 308 302 298 300 301 295 284 276 270 260 246 239 238 235 198 194 209 212 207 211 207 185 175 175 180 184 173 155 156 159 167 169 168 160 147 153 148 165
304 307 309 309 306 302 298 299 305 307 299 298 290 268 227 211 234 219 217 178 183 204 218 216 201 192 182 174 173 175 181 171 149 126 117 121 134 138 145 168 172 163 150
305 308 308 308 306 301 298 297 304 311 311 323 330 4 114 133 146 186 196 158 170 197 233 218 188 171 186 187 181 175 171 154 147 142 131 117 102 89 76 72 99 151 158
302 300 301 301 304 304 296 297 308 323 337 354 16 18 53 78 72 59 59 71 166 197 214 192 176 175 181 180 173 155 148 141 139 134 130 127 119 105 92 83 86 83 88
305 301 299 300 299 299 286 290 316 359 14 3 23 18 5 49 54 22 24 16 1 210 177 169 175 164 148 152 148 143 140 138 137 135 134 122 114 122 112 99 89 80 68
306 302 301 301 305 311 315 307 36 46 71 1 356 352 353 0 32 46 27 79 85 88 97 103 111 120 121 129 134 133 129 136 136 133 128 123 117 114 115 119 115 104 84
308 305 309 311 314 332 352 20 26 304 218 196 241 295 295 305 287 305 305 157 145 151 110 96 109 108 102 112 113 109 108 111 110 116 125 126 124 118 114 110 110 103 106
303 309 314 317 330 340 12 13 9 7 9 7 344 321 316 282 280 319 350 99 115 126 111 114 110 105 111 123 122 115 108 111 119 123 125 129 132 132 122 108 104 111 116
300 301 307 319 332 331 9 50 7 7 10 5 352 343 333 327 30 97 112 114 118 116 114 122 122 118 110 112 117 119 113 114 118 120 122 128 129 126 122 120 119 115 112
310 306 313 314 324 326 337 16 31 30 2 354 352 356 2 29 76 108 114 108 108 98 118 129 129 122 111 110 111 111 112 112 114 115 113 122 129 127 124 124 127 126 122
320 322 326 338 350 355 17 30 41 52 33 0 357 3 6 41 68 87 94 107 116 110 104 107 112 112 109 111 112 112 111 110 111 109 104 110 120 123 124 124 124 123 116
324 322 340 360 6 2 14 33 48 56 34 9 357 4 11 42 74 76 86 97 101 103 104 104 102 106 112 119 117 113 108 103 101 100 103 104 116 122 125 124 124 123 120
325 334 345 357 3 353 1 20 63 69 40 4 346 344 357 57 75 85 91 96 103 108 107 105 105 104 112 120 120 116 113 112 106 103 103 104 112 120 122 121 120 118 119
337 358 12 6 4 10 19 52 74 74 38 6 356 353 357 46 73 93 96 94 93 97 103 103 99 97 114 123 127 125 121 119 117 114 109 108 108 114 117 119 120 120 121
5 20 20 17 14 10 34 59 57 45 27 13 6 9 22 49 70 88 94 94 92 92 90 97 100 94 91 94 102 121 131 130 129 130 123 117 113 115 121 124 127 126 124
10 23 20 13 16 59 70 56 42 26 22 18 13 8 13 32 69 83 88 90 91 90 90 94 101 109 105 98 95 98 107 113 114 118 122 125 122 120 123 125 127 129 126
12 13 13 8 22 64 67 52 35 20 13 9 6 8 12 43 71 75 78 84 85 86 87 93 105 106 108 109 110 113 115 112 111 112 113 116 118 120 123 125 128 125 123
11 3 4 8 28 65 75 57 23 4 357 349 348 360 13 48 76 77 78 85 91 87 86 94 103 107 111 109 115 119 117 115 113 112 111 116 118 120 121 121 124 123 123
Height
1386 1385 1384 1384 1384 1383 1383 1383 1383 1383 1384 1384 1385 1386 1387 1388 1389 1391 1392 1395 1397 1399 1401 1402 1404 1406 1408 1411 1413 1415 1417 1418 1418 1418 1420 1421 1423 1424 1425 1427 1429 1430 1430
1382 1381 1379 1379 1379 1378 1377 1377 1377 1377 1378 1378 1379 1379 1380 1381 1383 1384 1385 1388 1390 1391 1393 1395 1397 1399 1401 1404 1406 1408 1410 1412 1413 1413 1414 1416 1417 1419 1420 1421 1423 1424 1425
1378 1377 1375 1374 1374 1373 1372 1372 1372 1372 1372 1372 1372 1373 1373 1374 1375 1377 1378 1381 1383 1384 1386 1388 1390 1392 1394 1397 1399 1401 1403 1406 1407 1408 1408 1411 1412 1414 1415 1416 1418 1419 1420
1375 1373 1372 1371 1369 1369 1368 1368 1367 1367 1366 1366 1366 1367 1367 1368 1369 1370 1372 1374 1376 1377 1379 1381 1383 1385 1387 1389 1392 1394 1396 1399 1401 1402 1403 1405 1406 1408 1410 1411 1412 1413 1414
1372 1370 1368 1367 1366 1365 1364 1364 1363 1362 1361 1361 1361 1361 1361 1362 1362 1363 1366 1367 1369 1371 1373 1375 1376 1378 1380 1382 1385 1387 1390 1392 1395 1396 1398 1399 1401 1403 1404 1406 1407 1408 1409
1369 1367 1365 1364 1363 1361 1360 1359 1358 1357 1356 1355 1354 1354 1355 1355 1357 1358 1360 1362 1364 1365 1367 1368 1370 1373 1374 1376 1378 1381 1384 1386 1388 1390 1392 1393 1395 1397 1399 1401 1402 1403 1403
1366 1364 1362 1361 1359 1357 1356 1355 1354 1352 1351 1349 1348 1349 1349 1350 1351 1353 1355 1357 1359 1360 1361 1363 1365 1367 1369 1371 1373 1376 1379 1381 1384 1386 1387 1388 1390 1392 1395 1397 1398 1399 1399
1363 1361 1360 1358 1355 1354 1352 1350 1349 1347 1346 1345 1344 1344 1344 1345 1347 1349 1351 1352 1354 1355 1357 1359 1361 1362 1364 1366 1368 1371 1373 1376 1379 1381 1383 1384 1387 1389 1391 1393 1394 1395 1396
1361 1359 1357 1355 1352 1350 1347 1345 1344 1342 1341 1340 1340 1340 1340 1341 1343 1345 1346 1348 1350 1352 1354 1356 1357 1358 1359 1362 1364 1366 1369 1372 1375 1377 1379 1381 1383 1385 1388 1389 1390 1391 1391
1358 1356 1354 1352 1349 1347 1344 1342 1340 1339 1337 1336 1336 1336 1338 1339 1340 1342 1343 1345 1346 1348 1350 1352 1353 1354 1356 1358 1360 1362 1365 1367 1370 1373 1375 1377 1379 1382 1384 1385 1387 1388 1388
1356 1353 1351 1349 1346 1343 1341 1339 1338 1336 1335 1334 1334 1334 1336 1337 1338 1339 1341 1342 1343 1345 1346 1348 1349 1351 1353 1355 1357 1359 1361 1364 1367 1369 1371 1373 1375 1378 1380 1382 1384 1385 1385
1353 1350 1348 1345 1343 1341 1339 1337 1336 1335 1334 1333 1333 1333 1334 1335 1336 1337 1338 1340 1341 1342 1343 1345 1346 1348 1350 1352 1354 1357 1359 1362 1364 1366 1368 1370 1372 1374 1376 1378 1380 1382 1383
1349 1347 1344 1342 1340 1338 1337 1336 1335 1334 1333 1333 1332 1332 1332 1333 1334 1335 1335 1336 1338 1339 1341 1342 1344 1345 1347 1350 1352 1355 1357 1359 1361 1363 1365 1367 1370 1372 1374 1375 1377 1379 1380
1347 1344 1342 1340 1337 1336 1335 1335 1334 1333 1333 1332 1332 1332 1331 1332 1332 1333 1333 1334 1336 1337 1339 1340 1342 1343 1345 1347 1349 1352 1354 1356 1358 1361 1363 1366 1368 1370 1371 1373 1374 1376 1377
1344 1342 1339 1338 1336 1335 1335 1334 1334 1334 1333 1333 1332 1331 1331 1330 1331 1332 1332 1333 1334 1335 1337 1338 1340 1341 1343 1345 1347 1349 1352 1354 1357 1359 1361 1363 1365 1367 1369 1371 1372 1374 1375
1342 1340 1338 1336 1335 1334 1333 1333 1333 1333 1333 1332 1332 1331 1330 1330 1330 1330 1331 1332 1333 1335 1336 1337 1338 1340 1341 1343 1345 1348 1350 1353 1355 1357 1359 1361 1363 1364 1367 1369 1371 1372 1373
1340 1338 1337 1335 1334 1334 1333 1332 1331 1331 1331 1331 1330 1329 1328 1328 1328 1329 1330 1332 1333 1334 1335 1336 1338 1339 1341 1343 1345 1347 1349 1351 1354 1356 1357 1359 1361 1363 1365 1367 1369 1371 1372
1339 1337 1336 1335 1334 1333 1332 1332 1331 1329 1328 1328 1328 1328 1327 1327 1328 1329 1330 1331 1332 1334 1335 1336 1337 1339 1341 1342 1344 1346 1348 1350 1352 1354 1356 1357 1359 1361 1363 1365 1367 1369 1371
1337 1335 1334 1334 1333 1332 1332 1331 1330 1330 1329 1328 1327 1326 1327 1327 1328 1329 1330 1331 1332 1333 1335 1336 1337 1339 1341 1342 1344 1346 1348 1349 1351 1353 1354 1356 1358 1360 1362 1364 1366 1368 1370
1335 1334 1333 1332 1332 1331 1331 1330 1330 1329 1329 1328 1327 1327 1327 1327 1328 1329 1330 1331 1332 1334 1335 1336 1338 1340 1341 1343 1344 1346 1347 1349 1350 1352 1353 1355 1357 1359 1361 1363 1365 1367 1369
1333 1332 1332 1331 1331 1330 1330 1329 1329 1329 1328 1328 1327 1327 1328 1328 1328 1329 1331 1332 1333 1334 1336 1337 1338 1340 1341 1343 1344 1345 1346 1348 1350 1352 1353 1355 1357 1359 1361 1363 1365 1367 1369
1331 1330 1330 1329 1329 1329 1329 1329 1328 1328 1328 1327 1327 1327 1328 1328 1329 1329 1331 1332 1334 1335 1336 1337 1339 1340 1341 1343 1344 1345 1346 1348 1350 1351 1353 1355 1357 1359 1360 1363 1365 1367 1369
1330 1329 1328 1328 1328 1328 1328 1328 1328 1328 1328 1327 1327 1327 1327 1328 1328 1329 1331 1332 1334 1335 1336 1338 1339 1340 1341 1343 1344 1345 1346 1348 1350 1351 1353 1354 1356 1358 1360 1362 1365 1367 1368
1328 1328 1328 1327 1327 1328 1327 1328 1328 1328 1327 1327 1327 1326 1327 1328 1328 1330 1331 1333 1334 1335 1337 1338 1339 1340 1341 1343 1344 1346 1347 1348 1350 1352 1353 1355 1356 1359 1361 1363 1365 1367 1369
1327 1327 1327 1327 1327 1327 1327 1327 1327 1327 1327 1326 1326 1326 1327 1328 1329 1330 1331 1333 1334 1335 1336 1338 1339 1340 1341 1343 1344 1345 1347 1349 1350 1352 1354 1355 1357 1359 1361 1363 1365 1367 1369
1327 1326 1326 1326 1326 1326 1326 1326 1326 1326 1326 1326 1326 1326 1327 1328 1329 1330 1331 1333 1334 1335 1336 1337 1339 1340 1341 1342 1344 1345 1347 1349 1350 1352 1354 1356 1358 1359 1362 1364 1366 1368 1370